Content
SEND FEEDBACK

Daily
Averages
Monthly
Summary
United States of America

CULVER CITY, CALIFORNIA


Home > North America > United States > California
Elevation: 80 feet     Latitude: 34 01N     Longitude: 118 23W

WEATHER
 
SELECT A DAY
Number of Records: 195,271;   Date Range: 1/1/95 - 11/25/14
 
SHARE

PRINT THIS DATA

[ ← Previous Day ]
WEATHER ALMANAC - JANUARY 23, 2013
[ Next Day → ]
[ °C ]   °F
Weather ElementAverageHighLow
Temperature65.5 °F73.9 °F (11:53 am)59 °F (1:53 am)
Dewpoint33.9 °F53.1 °F (11:53 pm)23 °F (5:53 am)
Humidity35 %81 % (11:53 pm)17 % (1:53 pm)
Barometer30.06 in30.14 in (10:53 pm)30.01 in (1:53 pm)
Wind Speed5.2 mph11.5 mph (4:53 pm)
Wind Gust18.4 mph (7:53 pm)
Weather ElementAverage
Visibility9.8 mi
Wind DirectionESE (99.1 °)

Weather ElementTotal
Precipitation0.04 in
Cooling Degree Days1.5 (Base 65)
Growing Degree Days16.5 (Base 50)
Averaged from 23 records on January 23, 2013
WEATHER CONDITIONS BREAKOUT
WIND DIRECTION BREAKOUT
WEATHER BY HOUR - JANUARY 23, 2013
[ °C ]   °F
Local TimeTemperatureDewpointHumidityBarometerVisibilityWind DirectionWind SpeedGust SpeedPrecipitationEventsConditions
1:53 AM59.0 °F27.0 °F29 %30.05 in10.0 miCalmOvercast
2:53 AM60.1 °F26.1 °F27 %30.04 in10.0 miNE (50°)3.5 mphOvercast
3:53 AM60.1 °F25.0 °F26 %30.02 in10.0 miENE (60°)3.5 mphOvercast
4:53 AM60.1 °F24.1 °F25 %30.02 in10.0 miCalmOvercast
5:53 AM62.1 °F23.0 °F22 %30.03 in10.0 miEast (80°)3.5 mphMostly Cloudy
6:53 AM62.6 °F24.8 °F24 %30.03 in10.0 miEast (80°)3.5 mphMostly Cloudy
7:53 AM64.4 °F24.8 °F22 %30.03 in10.0 miENE (70°)3.5 mphMostly Cloudy
8:53 AM66.9 °F27.0 °F22 %30.04 in10.0 miVariable3.5 mphMostly Cloudy
9:53 AM71.1 °F28.0 °F20 %30.05 in10.0 miESE (110°)5.8 mphMostly Cloudy
10:53 AM73.0 °F28.0 °F19 %30.06 in10.0 miESE (120°)5.8 mphMostly Cloudy
11:53 AM73.9 °F30.9 °F21 %30.05 in10.0 miSSE (150°)4.6 mphMostly Cloudy
12:53 PM73.9 °F30.0 °F20 %30.03 in10.0 miSE (130°)6.9 mphMostly Cloudy
1:53 PM73.0 °F26.1 °F17 %30.01 in10.0 miESE (120°)10.4 mphMostly Cloudy
2:53 PM72.0 °F28.0 °F20 %30.02 in10.0 miESE (120°)6.9 mphOvercast
3:53 PM71.1 °F30.0 °F22 %30.04 in10.0 miSE (130°)5.8 mphOvercast
4:53 PM69.1 °F33.1 °F26 %30.05 in10.0 miSSE (160°)11.5 mph17.3 mphOvercast
5:53 PM64.0 °F44.1 °F48 %30.08 in10.0 miSSE (150°)9.2 mphOvercast
6:53 PM64.0 °F46.9 °F54 %30.09 in10.0 miSE (140°)5.8 mphOvercast
7:53 PM63.0 °F48.0 °F58 %30.09 in10.0 miSE (140°)8.1 mph18.4 mphOvercast
8:53 PM62.1 °F48.9 °F62 %30.08 in10.0 miSSE (160°)3.5 mphOvercast
9:53 PM62.1 °F50.0 °F65 %30.11 in10.0 miSE (140°)3.5 mph0.00 inRainLight Rain
10:53 PM60.1 °F52.0 °F75 %30.14 in10.0 miEast (100°)4.6 mph0.00 inRainLight Rain
11:53 PM59.0 °F53.1 °F81 %30.14 in6.0 miENE (70°)6.9 mph0.04 inRainLight Rain
Hourly data recorded from KLAX, located miles away from Culver City, California







STORIES FROM OUR PARTNERS